Date String (YYYY-MM-DD hh:mm:ss) UTC,Instrument flags,Ambient pressure (hPa),Sample flow (lpm),Bypass flow (lpm),Sample temperature (°C),Ambient temperature (°C),ASC tube jacket temperature (°C),LED temperature (°C),Box temperature (°C),Sample RH (%),Span deviation,Mass concentration (μg/m³),Mass concentration (μg/m³),Mass concentration (μg/m³)
DateTimeUTC,F1_M11,P_M11,Q1_M11,Q2_M11,T1_M11,T2_M11,T3_M11,T4_M11,T5_M11,U1_M11,ZSPAN_M11,X0_M11,X2_M11,X1_M11
2022-02-09 01:00:00,,0827.8,5.02,0.00,26.1,25.2,00.0,35.3,27.8,04.6,0000.0,0001.40,0000.86,0000.58
2022-02-09 01:01:00,,0827.8,4.99,0.00,26.1,25.1,00.0,35.2,27.8,04.6,0000.0,0001.39,0000.86,0000.58
2022-02-09 01:02:00,,0827.9,5.00,0.00,26.1,25.1,00.0,35.2,27.8,04.6,0000.0,0001.34,0000.85,0000.57
2022-02-09 01:03:00,,0827.9,4.99,0.00,26.0,25.0,00.0,35.2,27.7,04.7,0000.0,0001.37,0000.87,0000.57
2022-02-09 01:04:00,,0827.9,5.00,0.00,26.0,25.0,00.0,35.2,27.7,04.5,0000.0,0001.30,0000.86,0000.58
2022-02-09 01:05:00,,0828.0,4.99,0.00,26.0,25.0,00.0,35.1,27.7,04.7,0000.0,0001.34,0000.88,0000.58
2022-02-09 01:06:00,,0828.0,5.01,0.00,26.0,25.0,00.0,35.1,27.7,04.9,0000.0,0001.88,0000.91,0000.58
2022-02-09 01:07:00,,0827.8,4.99,0.00,25.9,25.0,00.0,35.1,27.7,04.8,0000.0,0002.29,0000.95,0000.57
2022-02-09 01:08:00,,0827.9,5.00,0.00,25.9,25.0,00.0,35.1,27.6,04.5,0000.0,0002.29,0000.94,0000.57
2022-02-09 01:09:00,,0828.0,5.00,0.00,25.9,24.9,00.0,35.0,27.6,04.6,0000.0,0002.28,0000.94,0000.57
2022-02-09 01:10:00,,0827.9,5.01,0.00,25.9,24.9,00.0,35.0,27.6,04.7,0000.0,0002.21,0000.92,0000.58
2022-02-09 01:11:00,,0828.0,4.99,0.00,25.9,24.9,00.0,35.0,27.6,04.5,0000.0,0002.24,0000.93,0000.57
2022-02-09 01:12:00,,0828.0,5.01,0.00,25.8,24.8,00.0,35.0,27.4,04.7,0000.0,0002.26,0000.93,0000.57
2022-02-09 01:13:00,,0827.9,4.99,0.00,25.8,24.8,00.0,34.9,27.4,04.7,0000.0,0002.35,0000.96,0000.57
2022-02-09 01:14:00,,0827.9,4.99,0.00,25.8,24.8,00.0,34.9,27.5,04.5,0000.0,0002.34,0000.97,0000.57
2022-02-09 01:15:00,,0827.9,5.01,0.00,25.8,24.8,00.0,34.9,27.5,04.6,0000.0,0002.44,0000.97,0000.56
2022-02-09 01:16:00,,0827.9,4.99,0.00,25.8,24.8,00.0,34.9,27.5,04.7,0000.0,0002.46,0000.96,0000.56
2022-02-09 01:17:00,,0827.8,5.02,0.00,25.8,24.8,00.0,34.9,27.5,04.7,0000.0,0002.01,0000.94,0000.56
2022-02-09 01:18:00,,0827.9,4.99,0.00,25.7,24.8,00.0,34.9,27.4,04.4,0000.0,0001.50,0000.89,0000.56
2022-02-09 01:19:00,,0827.9,5.02,0.00,25.7,24.7,00.0,34.8,27.3,04.6,0000.0,0001.43,0000.86,0000.55
2022-02-09 01:20:00,,0827.9,4.99,0.00,25.7,24.7,00.0,34.8,27.3,04.7,0000.0,0001.40,0000.84,0000.55
2022-02-09 01:21:00,,0827.9,5.01,0.00,25.7,24.7,00.0,34.8,27.3,04.8,0000.0,0001.47,0000.85,0000.55
2022-02-09 01:22:00,,0827.8,4.98,0.00,25.6,24.7,00.0,34.8,27.3,05.0,0000.0,0001.39,0000.81,0000.54
2022-02-09 01:23:00,,0827.8,5.01,0.00,25.6,24.7,00.0,34.7,27.3,04.6,0000.0,0001.37,0000.79,0000.53
2022-02-09 01:24:00,,0827.8,4.98,0.00,25.6,24.6,00.0,34.7,27.2,04.5,0000.0,0001.25,0000.74,0000.54
2022-02-09 01:25:00,,0827.8,5.01,0.00,25.6,24.6,00.0,34.7,27.2,04.9,0000.0,0001.44,0000.71,0000.53
2022-02-09 01:26:00,,0827.8,4.99,0.00,25.5,24.6,00.0,34.7,27.1,04.8,0000.0,0001.69,0000.67,0000.53
2022-02-09 01:27:00,,0827.8,5.01,0.00,25.5,24.6,00.0,34.7,27.1,04.9,0000.0,0001.67,0000.65,0000.53
2022-02-09 01:28:00,,0827.8,5.00,0.00,25.5,24.6,00.0,34.6,27.1,04.8,0000.0,0001.68,0000.66,0000.52
2022-02-09 01:29:00,,0827.8,4.99,0.00,25.5,24.6,00.0,34.6,27.1,04.6,0000.0,0001.83,0000.71,0000.53
2022-02-09 01:30:00,,0827.8,5.01,0.00,25.5,24.5,00.0,34.6,27.0,04.8,0000.0,0001.87,0000.72,0000.53
2022-02-09 01:31:00,,0827.8,5.00,0.00,25.5,24.5,00.0,34.6,27.0,04.7,0000.0,0001.95,0000.74,0000.53
2022-02-09 01:32:00,,0827.8,4.99,0.00,25.5,24.5,00.0,34.6,27.1,04.6,0000.0,0002.00,0000.76,0000.52
2022-02-09 01:33:00,,0827.8,5.00,0.00,25.4,24.5,00.0,34.6,27.0,04.5,0000.0,0002.02,0000.78,0000.53
2022-02-09 01:34:00,,0827.7,5.01,0.00,25.4,24.5,00.0,34.5,27.0,04.4,0000.0,0002.01,0000.78,0000.53
2022-02-09 01:35:00,,0827.7,5.00,0.00,25.4,24.4,00.0,34.5,27.0,04.4,0000.0,0002.07,0000.79,0000.53
2022-02-09 01:36:00,,0827.8,5.00,0.00,25.4,24.4,00.0,34.5,27.0,04.6,0000.0,0002.14,0000.79,0000.53
2022-02-09 01:37:00,,0827.7,4.98,0.00,25.3,24.4,00.0,34.5,27.0,04.6,0000.0,0001.83,0000.81,0000.54
2022-02-09 01:38:00,,0827.7,4.98,0.00,25.3,24.4,00.0,34.5,27.0,04.5,0000.0,0001.87,0000.86,0000.55
2022-02-09 01:39:00,,0827.7,5.02,0.00,25.3,24.3,00.0,34.5,27.0,04.4,0000.0,0001.96,0000.88,0000.55
2022-02-09 01:40:00,,0827.7,4.99,0.00,25.3,24.3,00.0,34.5,26.9,04.5,0000.0,0001.84,0000.83,0000.55
2022-02-09 01:41:00,,0827.8,5.01,0.00,25.2,24.3,00.0,34.4,26.9,04.5,0000.0,0001.85,0000.84,0000.55
2022-02-09 01:42:00,,0827.7,4.99,0.00,25.2,24.2,00.0,34.4,26.8,04.5,0000.0,0001.80,0000.83,0000.55
2022-02-09 01:43:00,,0827.6,4.99,0.00,25.2,24.2,00.0,34.4,26.8,04.2,0000.0,0001.72,0000.81,0000.55
2022-02-09 01:44:00,,0827.7,5.02,0.00,25.1,24.2,00.0,34.4,26.8,04.1,0000.0,0001.67,0000.78,0000.55
2022-02-09 01:45:00,,0827.7,4.98,0.00,25.1,24.1,00.0,34.3,26.8,04.1,0000.0,0001.61,0000.76,0000.54
2022-02-09 01:46:00,,0827.8,5.00,0.00,25.1,24.1,00.0,34.3,26.8,04.2,0000.0,0001.67,0000.78,0000.54
2022-02-09 01:47:00,,0827.9,4.99,0.00,25.1,24.1,00.0,34.3,26.6,04.4,0000.0,0001.48,0000.81,0000.54
2022-02-09 01:48:00,,0827.8,4.99,0.00,25.1,24.0,00.0,34.2,26.6,04.5,0000.0,0001.39,0000.79,0000.53
2022-02-09 01:49:00,,0827.8,4.99,0.00,25.1,24.0,00.0,34.2,26.7,04.5,0000.0,0001.38,0000.77,0000.53
2022-02-09 01:50:00,,0827.8,5.02,0.00,25.1,24.0,00.0,34.2,26.7,04.6,0000.0,0001.27,0000.75,0000.54
2022-02-09 01:51:00,,0827.9,5.00,0.00,25.1,24.0,00.0,34.2,26.6,04.5,0000.0,0001.24,0000.74,0000.54
2022-02-09 01:52:00,,0827.9,4.99,0.00,25.1,24.0,00.0,34.2,26.6,04.5,0000.0,0001.21,0000.73,0000.54
2022-02-09 01:53:00,,0827.8,5.01,0.00,25.1,24.1,00.0,34.2,26.6,04.6,0000.0,0001.34,0000.75,0000.53
2022-02-09 01:54:00,,0827.8,4.99,0.00,25.1,24.1,00.0,34.2,26.6,04.4,0000.0,0001.33,0000.75,0000.53
2022-02-09 01:55:00,,0827.8,5.00,0.00,25.0,24.1,00.0,34.2,26.6,04.5,0000.0,0001.39,0000.77,0000.54
2022-02-09 01:56:00,,0827.8,5.00,0.00,25.0,24.1,00.0,34.2,26.7,04.7,0000.0,0001.41,0000.78,0000.54
2022-02-09 01:57:00,,0827.8,4.99,0.00,25.0,24.1,00.0,34.1,26.7,04.7,0000.0,0001.30,0000.76,0000.55
2022-02-09 01:58:00,,0827.8,5.00,0.00,25.0,24.1,00.0,34.1,26.7,04.7,0000.0,0001.17,0000.72,0000.54
2022-02-09 01:59:00,,0827.8,5.00,0.00,25.0,24.1,00.0,34.1,26.7,04.9,0000.0,0001.16,0000.72,0000.55
